Location: Palomar Mountain Lodge
(33.3110°N, 116.8495°W)
Time: 06:10:10
(UTC-07:00)

NOSS 3-1 (C) - Pass Details

Date: 12 July 2018
Orbit: 803 x 1406 km, 63.4° (Epoch: 10 July)

Event Time Altitude Azimuth Distance (km) Brightness Sun altitude
Rises 23:35:21 0° 326° (NW) 4,111 7.8 -31.8°
Reaches altitude 10° 23:38:01 10° 324° (NW) 3,219 7.0 -32.0°
Maximum altitude 23:45:52 67° 244° (WSW) 1,445 4.2 -32.6°
Enters shadow 23:46:15 66° 229° (SW) 1,456 4.1 -32.6°
